Flag for Norway Weather past 2 weeks in Stange, Norway

Now
60 °F

Cool.


Feels Like: 60 °F
Forecast: 49 / 75 °F
Wind: 2 mph from East

Location: Haugedalshogda

Current Time: Jul 30, 2014 at 10:06:13 PM

Latest Report: Jul 30, 2014 at 9:00 PM


Visibility: N/A

Pressure: 29.60 "Hg

Humidity: 88%

Dew point: 56 °F

Location of StangeLocation

Historic Weather in Stange — Graph

°F

Stange temperature yesterday

Maximum temperature yesterday: 80 °F (at 2:00 PM)
Minimum temperature yesterday: 56 °F (at 3:00 AM)
Average temperature yesterday: 68 °F

Past Weeks' High & Low Weather Summary

 TemperatureHumidityPressure
High88 °F (Jul 23, 5:00 PM)94% (Jul 16, 12:00 AM)30.39 "Hg (Jul 16, 12:00 AM)
Low44 °F (Jul 21, 4:00 AM)23% (Jul 24, 2:00 PM)29.56 "Hg (Jul 30, 5:00 PM)
Average66 °F68%30.07 "Hg
* Reported Jul 15 8:00 PM — Jul 30 8:00 PM, Stange, Weather by CustomWeather, © 2014

Note: Actual official high and low records may vary slightly from our data, if they occured in-between our weather recording intervals... More about our weather records

Advertising

Stange weather history for previous 24 hours

 ConditionsComfort  
Time TempWeatherWind HumidityBarometerVisibility
8:00 PM
Jul 30
60 °FCool.3 mph88%29.60 "HgN/A
7:00 PM63 °FMild.3 mph79%29.59 "HgN/A
6:00 PM60 °FCool.2 mph89%29.61 "HgN/A
5:00 PM71 °FMild.5 mph48%29.56 "HgN/A
4:00 PM76 °FMild.7 mph44%29.57 "HgN/A
3:00 PM74 °FMild.6 mph48%29.59 "HgN/A
2:00 PM71 °FMild.6 mph58%29.62 "HgN/A
1:00 PM68 °FMild.5 mph68%29.65 "HgN/A
12:00 PM65 °FMild.5 mph73%29.66 "HgN/A
11:00 AM64 °FMild.5 mph73%29.67 "HgN/A
10:00 AM64 °FMild.5 mph71%29.66 "HgN/A
9:00 AM63 °FMild.3 mph79%29.68 "HgN/A
8:00 AM61 °FCool.3 mph82%29.68 "HgN/A
7:00 AM60 °FCool.1 mph89%29.69 "HgN/A
6:00 AM59 °FCool.2 mph93%29.70 "HgN/A
5:00 AM55 °FCool.2 mph94%29.70 "HgN/A
4:00 AM51 °FCool.1 mph93%29.71 "HgN/A
3:00 AM54 °FCool.1 mph91%29.72 "HgN/A
2:00 AM56 °FCool.2 mph89%29.73 "HgN/A
1:00 AM58 °FCool.1 mph90%29.73 "HgN/A
12:00 AM61 °FCool.1 mph85%29.73 "HgN/A
11:00 PM
Jul 29
60 °FCool.1 mph87%29.73 "HgN/A
10:00 PM67 °FMild.No wind70%29.71 "HgN/A
Weather by CustomWeather, © 2014

See weather overviewHow to use our weather pages